Location: Fernhill
(41.0167°S, 175.6333°E)
Time: 07:05:46
(UTC+00:00)

CZ-4 R/B - Pass Details

Date: 08 November 2025
Orbit: 495 x 541 km, 97.6° (Epoch: 11 December)

Event Time Altitude Azimuth Distance (km) Brightness Sun altitude
Rises 10:11:57 0° 191° (S) 2,633 5.9 -27.0°
Reaches altitude 10° 10:15:17 10° 223° (SW) 1,731 4.8 -27.3°
Maximum altitude 10:16:37 12° 244° (WSW) 1,622 4.3 -27.4°
Drops below altitude 10° 10:17:57 10° 265° (W) 1,720 4.2 -27.5°
Enters shadow 10:19:11 - 281° (W) 1,967 4.3 -27.6°
